Weather Service Report


703 
ASUS44 KOUN 252310
RWROK 

WEATHER ROUNDUP FOR OKLAHOMA
NATIONAL WEATHER SERVICE NORMAN OK
600 PM CDT SAT JUN 25 2016

NOTE: "FAIR" INDICATES FEW OR NO CLOUDS BELOW 12,000 FEET WITH NO
      SIGNIFICANT WEATHER AND/OR OBSTRUCTIONS TO VISIBILITY.

OKZ001>007-009>012-014-015-017-260000-
NORTHWEST OKLAHOMA AND THE PANHANDLE
  
CITY           SKY/WX    TMP DP  RH WIND       PRES   REMARKS
GAGE           SUNNY     93  62  35 S22       29.93F HX  93           
GUYMON         SUNNY     96  56  26 S18G30    29.87F HX  94           
ENID/WOODRING  PTSUNNY   99  64  32 S17G24    29.91F HX 101           
$$

OKZ016-021>023-033>039-044-045-260000-
SOUTHWEST OKLAHOMA
  
CITY           SKY/WX    TMP DP  RH WIND       PRES   REMARKS
LAWTON/REGL    MOSUNNY   94  68  42 S18G26    29.94F HX  98           
LAWTON/FT SILL MOSUNNY   91  71  52 S16G23    29.93F HX  98           
FREDERICK      MOSUNNY   92  66  42 S22G29    29.92S HX  94           
CLINTON        MOSUNNY   95  62  33 S18G30    29.96F HX  96           
HOBART         PTSUNNY   95  67  39 S20G33    29.94F HX  99           
ALTUS AFB      MOSUNNY   96  59  29 S17G23    29.92F HX  95           
$$

OKZ018>020-024>031-260000-
CENTRAL OKLAHOMA
  
CITY           SKY/WX    TMP DP  RH WIND       PRES   REMARKS
OKLAHOMA CITY  MOSUNNY   92  69  47 S13       29.96F HX  97           
OKC/WILEY POST MOSUNNY   93  68  43 S18G25    29.96F HX  97           
OKC/TINKER AFB SUNNY     91  70  49 S15G22    29.96F HX  96           
STILLWATER     SUNNY     94  66  39 S14       29.94F HX  97           
GUTHRIE        SUNNY     93  69  45 S14G24    29.94F HX  98           
$$

OKZ008-013-054>072-260000-
NORTHEAST OKLAHOMA
  
CITY           SKY/WX    TMP DP  RH WIND       PRES   REMARKS
TULSA          MOSUNNY   95  68  41 SW15G24   29.94F HX  99           
TULSA/JONES    MOSUNNY   95  68  41 S15       29.96S HX  99           
PONCA CITY     SUNNY     95  67  39 S9G17     29.93S HX  99           
BARTLESVILLE   MOSUNNY   93  68  43 S10G17    29.95F HX  97           
MUSKOGEE       SUNNY     92  70  48 SW12      29.98F HX  97           
$$

OKZ032-040>043-046>053-073>077-260000-
SOUTH CENTRAL/SOUTHEAST OKLAHOMA
  
CITY           SKY/WX    TMP DP  RH WIND       PRES   REMARKS
ARDMORE/DWNTWN PTSUNNY   90  68  48 S8        29.97F HX  93           
MCALESTER      MOSUNNY   92  70  48 S7        29.99F HX  97           
$$

  

Return to Home page


Western Regional Climate Center, wrcc@dri.edu